Location: Mount Cross
(36.6390°N, 79.4878°W)
Time: 20:14:00
(UTC+00:00)

Courier 1B Rocket - Pass Details

Date: 29 March 2023
Orbit: 920 x 1202 km, 28.2° (Epoch: 05 June)

Event Time Altitude Azimuth Distance (km) Brightness Sun altitude
Rises 03:38:06 0° 264° (W) 3,782 8.4 -43.2°
Enters shadow 03:40:18 - 258° (WSW) 3,056 7.8 -43.5°
Reaches altitude 10° 03:41:11 10° 255° (WSW) 2,782 - -43.6°
Maximum altitude 03:46:57 31° 195° (SSW) 1,613 - -44.3°
Drops below altitude 10° 03:52:28 10° 135° (SE) 2,640 - -44.9°
Sets 03:55:18 0° 125° (SE) 3,561 - -45.2°
